Location: Rancho Del Sol Observatory
(38.7214°N, 120.6350°W)
Time: 14:15:17
(UTC-07:00)

Daily predictions for brighter satellites

Satellite Brightness Start Highest point End
(mag) Time Altitude Azimuth Time Altitude Azimuth Time Altitude Azimuth
CZ-3C R/B 4.3 20:04:33 10° SW 20:46:12 26° S 20:55:14 10° SE
BREEZE-M DEB (TANK) 2.8 20:53:03 10° WSW 20:55:40 37° NNW 20:57:37 10° NE
Cosmos 1709 Rocket 4.4 20:53:22 10° SSW 20:59:26 68° W 21:05:36 10° N
NOSS 2-2 (E) 3.7 20:58:56 10° SSW 21:02:52 48° ESE 21:07:21 10° NE
SPOT 5 4.1 20:58:57 10° SE 21:03:26 30° ENE 21:08:02 10° N
Cosmos 1356 Rocket 3.6 21:01:10 10° S 21:05:13 52° E 21:09:23 10° NNE
H-2A R/B 2.8 21:01:34 10° SE 21:05:35 37° ENE 21:09:33 10° N
Cosmos 2074 Rocket 4.1 21:00:08 10° S 21:06:16 59° E 21:12:25 10° NNE
SJ-11-01 4.4 21:01:38 10° SSE 21:06:19 66° ENE 21:11:03 10° N
Cosmos 389 Rocket 4.4 21:03:23 10° NNW 21:06:27 30° W 21:09:31 10° SSW
COSMOS 2406 3.8 21:02:33 10° N 21:08:02 43° ENE 21:13:05 12° SE
ERS-1 Rocket 3.0 21:03:27 10° SSE 21:08:26 69° ENE 21:13:28 10° N
Resurs 01 Rocket 4.5 21:09:02 10° SW 21:11:26 14° W 21:13:50 10° WNW
ALOS 3.6 21:08:29 10° SSW 21:12:52 41° W 21:17:18 10° NNW
PSLV R/B 3.6 21:12:50 10° WNW 21:16:16 65° N 21:19:31 11° E
BREEZE-M DEB (TANK) 3.5 21:16:35 10° W 21:18:52 46° NNW 21:23:13 10° NE
Abrixas rocket 2.3 21:16:57 10° WNW 21:20:22 78° SW 21:22:48 18° SE
CZ-4 DEB 3.7 21:18:37 10° S 21:21:40 46° W 21:24:45 10° NNW
ATLAS 5 CENTAUR R/B 2.7 21:17:22 10° NNW 21:23:18 58° NE 21:28:29 16° SE
Cosmos 909 Rocket 4.2 21:18:03 10° SSW 21:24:26 83° ESE 21:32:05 10° NNE
Sich 1 Rocket 4.2 21:20:15 10° SSE 21:24:30 39° E 21:28:47 10° NNE
Okean 1-7 4.5 21:23:58 10° NNW 21:27:56 37° W 21:31:53 10° SSW
Cosmos 2278 Rocket 3.4 21:25:14 14° SE 21:28:23 22° E 21:32:39 10° NE
Cosmos 1825 3.6 21:29:25 18° ESE 21:30:36 21° E 21:33:32 10° NE
Cosmos 1844 4.3 21:25:26 10° S 21:30:38 37° ESE 21:35:53 10° NE
CZ-3A R/B 4.4 21:12:13 10° W 21:31:07 29° SSW 21:35:12 14° SSE
CZ-4B R/B 4.4 21:28:06 10° NE 21:32:20 28° E 21:34:50 18° SE
OPS 6432 4.2 21:29:41 10° SSW 21:33:17 79° ESE 21:36:25 10° NE
Cosmos 1340 Rocket 4.1 21:29:57 10° SSW 21:33:43 43° WNW 21:37:35 10° N
Cosmos 1674 Rocket 3.6 21:31:24 10° N 21:35:50 62° E 21:39:08 17° SSE
Cosmos 1939 Rocket 2.9 21:33:27 12° S 21:37:03 76° WSW 21:40:58 10° NNW
Cosmos 2056 Rocket 3.4 21:33:52 10° SSW 21:39:04 90° N 21:44:13 10° NNE
USA 234 3.7 21:33:21 10° ENE 21:39:16 36° SE 21:45:09 10° SSW
Cosmos 1844 Rocket 2.7 21:35:56 10° S 21:41:31 63° ESE 21:47:05 10° NNE
Cosmos 1782 2.8 21:37:33 10° N 21:41:35 71° E 21:44:17 20° SSE
Meteor 1-27 Rocket 3.9 21:40:15 10° N 21:45:42 52° ENE 21:49:08 22° SE
Cosmos 1782 Rocket 4.5 21:44:31 24° SE 21:46:06 30° E 21:50:00 10° NNE
Coronas F rocket 3.2 21:44:18 10° SW 21:46:41 29° W 21:49:04 10° NNW
COSMOS 2487 4.5 21:44:43 10° NNE 21:47:03 16° ENE 21:47:48 15° ENE
Cosmos 2082 Rocket 4.3 21:45:41 10° NNE 21:48:10 13° NE 21:50:39 10° ENE
SL-27 R/B 2.5 21:44:51 10° NNW 21:48:31 66° ENE 21:50:06 30° SE
YAOGAN 6 2.8 21:49:06 31° SE 21:50:25 49° ENE 21:53:50 10° N
Cosmos 1408 3.2 21:49:55 30° SE 21:50:53 36° E 21:54:17 10° NNE
Atlas Centaur 2 2.4 21:51:55 10° SW 21:54:40 23° S 21:54:40 23° S
COS B Rocket 3.2 21:51:34 10° N 21:55:48 74° E 21:57:55 26° S
SL-8 R/B 4.2 21:53:45 10° WSW 21:58:32 63° NNW 22:03:19 10° NE
CZ-4 R/B 4.4 21:55:07 10° NNE 21:59:27 36° E 22:00:45 30° SE
BREEZE-M DEB 4.5 21:55:10 10° SW 21:59:41 58° SE 22:01:14 26° ENE
MetOp-A 4.1 21:57:43 21° SSE 22:01:20 86° ENE 22:06:43 10° NNW
Cosmos 1606 2.7 21:59:08 10° N 22:03:05 75° E 22:04:35 36° SSE
Cosmos 1975 Rocket 3.7 21:59:30 10° N 22:03:32 37° ENE 22:04:34 32° ESE
Cosmos 962 Rocket 4.5 21:59:16 18° S 22:03:52 63° E 22:09:59 10° NNE
SL-08 RB Rocket 4.3 22:03:06 30° ESE 22:04:41 41° ENE 22:09:02 10° N
Cosmos 2154 Rocket 3.9 22:02:33 10° S 22:08:48 89° ESE 22:15:03 10° N
Okean 3 3.7 22:05:27 10° N 22:09:40 53° E 22:10:49 40° SE
BREEZE-M DEB (TANK) 3.6 22:08:06 10° W 22:10:15 31° SSW 22:10:43 29° SSW
Cosmos 1908 Rocket 3.6 22:08:09 18° SSW 22:11:23 79° W 22:15:50 10° N
Cosmos 1242 Rocket 3.7 22:08:32 10° NNE 22:11:41 28° ENE 22:11:41 28° ENE
CENTAUR R/B 3.5 22:04:14 10° NW 22:12:00 57° WSW 22:17:53 20° S
NOAA 11 4.3 22:10:39 31° SE 22:13:14 64° ENE 22:18:40 10° N
USA 245 2.5 22:13:16 69° ESE 22:13:25 72° ENE 22:16:52 10° N
CZ-4 SHROUD 3.7 22:13:31 41° SSW 22:14:15 54° W 22:17:19 10° NNW
STPSAT 2 (USA 217) 4.5 22:12:25 14° SSW 22:16:16 88° ESE 22:20:47 10° NNE
Envisat 4.2 22:14:22 11° SSW 22:18:47 37° W 22:23:29 10° NNW
H-2A R/B 2.9 22:17:20 30° ESE 22:19:03 38° ENE 22:23:59 10° N
Cosmos 1378 Rocket 3.4 22:16:27 10° N 22:20:46 85° W 22:22:15 41° S
ERBS 2.8 22:19:56 10° NW 22:23:17 47° SW 22:23:30 46° SW
Cosmos 1420 Rocket 4.1 22:26:29 41° SSE 22:27:52 54° ESE 22:32:58 10° NNE
Cosmos 1295 Rocket 4.4 22:27:15 29° S 22:30:40 75° E 22:36:58 10° N
SPOT 1/Viking Rocket 3.7 22:31:45 34° S 22:34:00 70° WSW 22:39:13 10° NNW
Cosmos 407 Rocket 4.2 22:35:02 10° NNW 22:40:05 48° WSW 22:42:19 30° SSW
Cosmos 1238 Rocket 3.1 22:37:19 10° NNW 22:40:19 45° W 22:40:29 45° WSW
Landsat 7 3.8 22:39:28 56° SE 22:40:20 70° ENE 22:45:05 10° N
SPOT 5 4.5 22:37:51 16° SSW 22:41:20 33° W 22:46:07 10° NNW
Cosmos 489 Rocket 4.4 22:35:20 10° NNW 22:41:33 75° ENE 22:43:34 45° SE
H-2A R/B 4.5 22:38:47 10° SW 22:41:41 17° W 22:44:35 10° NW
Cosmos 1452 Rocket 4.1 22:37:14 10° SSW 22:42:24 57° WNW 22:47:36 10° N
Cosmos 2366 rocket 4.2 22:40:48 43° SE 22:42:27 54° E 22:48:35 10° NNE
Meteor 1-14 Rocket 4.2 22:42:37 47° SSE 22:44:09 66° E 22:49:44 10° NNE
Cosmos 2084 3.2 22:45:11 73° W 22:45:26 78° NW 22:49:15 10° NNE
ASTEX 1 4.3 22:48:01 10° NNE 22:51:57 33° ENE 22:51:57 33° ENE
Spot 4 4.2 22:52:37 48° E 22:52:56 49° ENE 22:57:37 10° N
Cosmos 614 Rocket 4.1 22:50:49 10° N 22:55:50 55° ENE 22:56:16 53° E
Terra 1.7 22:55:45 67° ESE 22:56:06 70° ENE 23:00:50 10° N
Cosmos 1140 Rocket 3.3 22:51:46 10° NNW 22:56:56 89° ENE 22:57:38 68° SSE
DELTA 2 DEB (DPAF) 4.1 22:58:19 71° SW 22:58:38 76° WSW 23:03:08 10° NNW
Okean 2 Rocket 3.9 22:57:26 35° SW 22:58:50 47° W 23:03:07 10° N
ARGOS 4.0 23:01:36 32° SW 23:03:29 43° W 23:08:34 10° NNW
DMSP B5D2-2 3.9 22:59:00 10° NNE 23:04:14 83° ESE 23:04:56 67° S
Cosmos 2218 Rocket 4.0 23:02:10 43° S 23:04:28 87° W 23:10:55 10° N
CZ-4C R/B 3.8 23:06:05 55° WNW 23:06:05 55° WNW 23:09:35 10° NNW
Cosmos 1825 4.5 23:04:19 16° WSW 23:06:07 21° WNW 23:09:05 10° NNW
ATLAS 5 CENTAUR R/B 4.0 23:02:50 10° WNW 23:07:46 25° WSW 23:10:03 21° SW
Cosmos 2278 Rocket 3.1 23:06:57 12° SW 23:12:04 48° WNW 23:17:34 10° NNE
Cosmos 1812 4.2 23:12:51 10° N 23:15:14 31° NNE 23:15:14 31° NNE
Cosmos 1850 Rocket 3.9 23:12:21 10° NNW 23:17:41 80° WSW 23:18:00 76° SSW
Cosmos 1833 Rocket 3.0 23:14:50 10° NNW 23:20:18 50° ENE 23:20:41 49° ENE
USA 234 3.7 23:16:01 10° NE 23:22:26 61° NW 23:28:50 10° WSW
COSMOS 2487 4.5 23:19:35 10° NW 23:21:53 25° WNW 23:21:53 25° WNW
Cosmos 1727 Rocket 3.8 23:17:47 10° N 23:23:59 88° W 23:24:55 67° S
IGS 5A 4.4 23:30:58 45° WNW 23:30:58 45° WNW 23:34:21 10° NNW
Cosmos 2082 Rocket 2.1 23:27:27 10° NNW 23:33:11 82° ENE 23:33:18 81° E
Timation 2 Rocket 4.0 23:28:55 10° NNW 23:34:47 59° WSW 23:35:17 57° SW
Cosmos 1741 Rocket 4.3 23:30:30 10° NNW 23:35:33 56° WSW 23:35:33 56° WSW
Cosmos 2297 4.3 23:40:40 38° WSW 23:42:28 53° WNW 23:48:05 10° NNE
Cosmos 1331 Rocket 4.3 23:54:08 59° NNE 23:54:08 59° NNE 23:58:18 10° NNE
